Location: Aranbee
(34.0885°N, 118.2342°W)
Time: 07:56:15
(UTC+00:00)

Courier 1B Rocket - Pass Details

Date: 04 December 2020
Orbit: 920 x 1202 km, 28.2° (Epoch: 27 January)

Event Time Altitude Azimuth Distance (km) Brightness Sun altitude
Rises 17:04:38 0° 267° (W) 4,088 7.9 22.1°
Reaches altitude 10° 17:08:23 10° 252° (WSW) 3,102 7.5 22.6°
Maximum altitude 17:13:36 20° 209° (SSW) 2,400 7.5 23.2°
Drops below altitude 10° 17:18:41 10° 165° (SSE) 2,993 9.0 23.9°
Sets 17:22:14 0° 149° (SSE) 3,899 9.6 24.3°
